USA 176 (DSP 22)

Last updated on Thu Nov 21 2024 00:02:40 GMT+0000 (Coordinated Universal Time)

1 28158U 04004A 24325.53889981 -.00000219 00000+0 00000+0 0 9990 2 28158 11.2761 30.0343 0001735 274.7383 36.5476 1.00268480 27174
UTC large
Height (km)
Speed (km/s)
/
Latitude / Longitude
Inclination (degrees)
Orbital Period (minutes)
Azimuth
Elevation
Range (km)
Doppler Factor

Next 0 passes for location: London (51.5072 / 0.1276)

Sorry there are no passes over London.